Weather History for Kelso-Longview, WA

Change the Weather History Date:

Wednesday, April 23, 2014

  Actual Average Record
Temperature  
Mean Temperature 48 °F -  
Max Temperature 53 °F 59 °F 75 °F (2006)
Min Temperature 44 °F 40 °F 33 °F (2006)
Degree Days  
Heating Degree Days 16    
Moisture  
Dew Point 45 °F    
Average Humidity 83    
Maximum Humidity 88    
Minimum Humidity 77    
Precipitation  
Precipitation 0.78 in - - ()
Sea Level Pressure  
Sea Level Pressure 29.89 in    
Wind  
Wind Speed 8 mph (SSE)    
Max Wind Speed 17 mph    
Max Gust Speed 26 mph    
Visibility 9 miles    
Events      
Averages and records for this station are not official NWS values.
T = Trace of Precipitation, MM = Missing Value Source: NWS Daily Summary

Daily Weather History Graph

Daily Weather History Graph

Search for Another Location

Airport:

Trip Planner

Search our weather history database for the weather conditions in past years. The results will help you decide how hot, cold, wet, or windy it might be!

Date:

Astronomy

Apr. 23, 2014 Rise Set
Actual Time 6:11 AM PDT 8:09 PM PDT
Civil Twilight 5:38 AM PDT 8:41 PM PDT
Nautical Twilight 4:59 AM PDT 9:21 PM PDT
Astronomical Twilight 4:15 AM PDT 10:05 PM PDT
Moon 3:06 AM PDT (4/23) 2:05 PM PDT (4/23)
Length of Visible Light 15h 03m
Length of Day
13h 58m
Waning Crescent, 34% of the Moon is Illuminated
Apr 23
Waning Crescent
Apr 28
New
May 6
First Quarter
May 14
Full
May 21
Last Quarter

Hourly Weather History & Observations

Time (PDT) Temp. Windchill Dew Point Humidity Pressure Visibility Wind Dir Wind Speed Gust Speed Precip Events Conditions
12:15 AM 46.4 °F 42.9 °F 41.0 °F 81% 29.96 in 10.0 mi SSE 6.9 mph - 0.01 in   Overcast
12:35 AM 46.4 °F 42.9 °F 42.8 °F 87% 29.96 in 10.0 mi SSE 6.9 mph - 0.01 in   Overcast
12:55 AM 46.4 °F 43.5 °F 42.8 °F 87% 29.97 in 10.0 mi SSE 5.8 mph - 0.01 in   Overcast
1:15 AM 46.4 °F 43.5 °F 42.8 °F 87% 29.97 in 10.0 mi SSE 5.8 mph - 0.02 in   Overcast
1:35 AM 46.4 °F 44.3 °F 42.8 °F 87% 29.96 in 10.0 mi SSE 4.6 mph - 0.02 in   Overcast
1:55 AM 46.4 °F 42.9 °F 42.8 °F 87% 29.96 in 10.0 mi SSE 6.9 mph - 0.02 in   Overcast
2:15 AM 46.4 °F 41.9 °F 42.8 °F 87% 29.97 in 10.0 mi SSE 9.2 mph - N/A   Overcast
2:35 AM 46.4 °F 42.4 °F 42.8 °F 87% 29.96 in 10.0 mi SSE 8.1 mph - N/A   Overcast
2:55 AM 46.4 °F 42.9 °F 42.8 °F 87% 29.97 in 10.0 mi SSE 6.9 mph - N/A   Overcast
3:15 AM 46.4 °F 42.9 °F 42.8 °F 87% 29.96 in 10.0 mi SSE 6.9 mph - 0.01 in   Overcast
3:35 AM 46.4 °F 42.9 °F 42.8 °F 87% 29.97 in 10.0 mi SSE 6.9 mph - 0.01 in   Overcast
3:55 AM 46.4 °F 41.9 °F 42.8 °F 87% 29.97 in 10.0 mi SE 9.2 mph - 0.01 in   Overcast
4:15 AM 46.4 °F 41.9 °F 42.8 °F 87% 29.96 in 10.0 mi SE 9.2 mph - N/A   Overcast
4:35 AM 46.4 °F 42.9 °F 41.0 °F 81% 29.96 in 10.0 mi SSE 6.9 mph - N/A   Overcast
4:55 AM 46.4 °F 41.9 °F 41.0 °F 81% 29.96 in 10.0 mi SSE 9.2 mph - N/A   Overcast
5:15 AM 46.4 °F 41.5 °F 41.0 °F 81% 29.96 in 10.0 mi SSE 10.4 mph - N/A   Overcast
5:35 AM 46.4 °F 42.9 °F 41.0 °F 81% 29.97 in 10.0 mi SSE 6.9 mph - N/A   Overcast
5:55 AM 46.4 °F 42.9 °F 41.0 °F 81% 29.97 in 10.0 mi SSE 6.9 mph - N/A   Overcast
6:15 AM 46.4 °F 42.9 °F 41.0 °F 81% 29.97 in 10.0 mi SSE 6.9 mph - N/A   Overcast
6:35 AM 46.4 °F 41.9 °F 41.0 °F 81% 29.96 in 10.0 mi SSE 9.2 mph - N/A   Overcast
6:55 AM 46.4 °F 42.9 °F 41.0 °F 81% 29.97 in 10.0 mi SSE 6.9 mph - N/A   Overcast
7:15 AM 46.4 °F 42.4 °F 41.0 °F 81% 29.97 in 10.0 mi SSE 8.1 mph 16.1 mph 0.03 in   Overcast
7:35 AM 44.6 °F 39.2 °F 41.0 °F 87% 29.97 in 10.0 mi SSE 10.4 mph - 0.06 in   Overcast
7:55 AM 46.4 °F 42.9 °F 41.0 °F 81% 29.97 in 10.0 mi SSE 6.9 mph - 0.08 in   Overcast
8:15 AM 46.4 °F 44.3 °F 41.0 °F 81% 29.97 in 10.0 mi SSE 4.6 mph - 0.02 in   Overcast
8:35 AM 46.4 °F 44.3 °F 41.0 °F 81% 29.97 in 10.0 mi SE 4.6 mph - 0.04 in   Overcast
8:55 AM 46.4 °F 43.5 °F 42.8 °F 87% 29.97 in 10.0 mi SE 5.8 mph - 0.06 in   Overcast
9:15 AM 46.4 °F 44.3 °F 42.8 °F 87% 29.97 in 10.0 mi SSE 4.6 mph - 0.01 in   Overcast
9:35 AM 46.4 °F 42.9 °F 42.8 °F 87% 29.96 in 10.0 mi SSE 6.9 mph - 0.03 in   Overcast
10:15 AM 48.2 °F - 42.8 °F 82% 29.96 in 10.0 mi SE 5.8 mph - 0.02 in   Overcast
10:35 AM 48.2 °F - 42.8 °F 82% 29.96 in 10.0 mi SE 6.9 mph - 0.04 in   Overcast
10:55 AM 48.2 °F - 44.6 °F 87% 29.95 in 10.0 mi SE 5.8 mph - 0.07 in   Overcast
11:15 AM 48.2 °F - 44.6 °F 87% 29.95 in 10.0 mi SSE 4.6 mph - N/A   Mostly Cloudy
11:35 AM 50.0 °F - 44.6 °F 82% 29.94 in 8.0 mi SSE 3.5 mph - 0.02 in   Overcast
11:55 AM 50.0 °F - 44.6 °F 82% 29.94 in 5.0 mi Calm Calm - 0.04 in   Overcast
12:15 PM 50.0 °F - 44.6 °F 82% 29.93 in 3.0 mi SE 6.9 mph - 0.02 in   Overcast
12:35 PM 51.8 °F - 46.4 °F 82% 29.93 in 4.0 mi SSE 9.2 mph 18.4 mph 0.03 in   Overcast
1:15 PM 51.8 °F - 46.4 °F 82% 29.92 in 9.0 mi SSE 17.3 mph 23.0 mph 0.01 in   Overcast
1:35 PM 51.8 °F - 46.4 °F 82% 29.91 in 3.0 mi SSE 12.7 mph 24.2 mph 0.01 in   Overcast
1:55 PM 51.8 °F - 46.4 °F 82% 29.91 in 10.0 mi SSE 16.1 mph 20.7 mph 0.03 in   Overcast
2:15 PM 51.8 °F - 46.4 °F 82% 29.91 in 10.0 mi SSE 11.5 mph 17.3 mph 0.03 in   Overcast
2:35 PM 51.8 °F - 48.2 °F 88% 29.91 in 10.0 mi SSE 8.1 mph - 0.04 in   Overcast
2:55 PM 53.6 °F - 46.4 °F 77% 29.90 in 10.0 mi SE 11.5 mph 17.3 mph 0.04 in   Overcast
3:15 PM 53.6 °F - 48.2 °F 82% 29.89 in 9.0 mi SSE 13.8 mph 19.6 mph 0.01 in   Overcast
3:35 PM 53.6 °F - 46.4 °F 77% 29.88 in 10.0 mi SSE 10.4 mph 17.3 mph 0.01 in   Mostly Cloudy
3:55 PM 53.6 °F - 48.2 °F 82% 29.87 in 9.0 mi SSE 12.7 mph 17.3 mph 0.02 in   Overcast
4:15 PM 51.8 °F - 46.4 °F 82% 29.87 in 10.0 mi SSE 9.2 mph - 0.02 in   Overcast
4:35 PM 53.6 °F - 48.2 °F 82% 29.85 in 10.0 mi SSE 11.5 mph 21.9 mph 0.03 in   Mostly Cloudy
4:55 PM 53.6 °F - 48.2 °F 82% 29.84 in 10.0 mi SSE 13.8 mph 19.6 mph 0.04 in   Overcast
5:15 PM 53.6 °F - 46.4 °F 77% 29.83 in 9.0 mi SE 9.2 mph 18.4 mph 0.02 in   Overcast
5:35 PM 53.6 °F - 48.2 °F 82% 29.83 in 10.0 mi SSE 11.5 mph 17.3 mph 0.03 in   Overcast
5:55 PM 51.8 °F - 48.2 °F 88% 29.82 in 10.0 mi SSE 10.4 mph - 0.04 in   Overcast
6:15 PM 51.8 °F - 48.2 °F 88% 29.82 in 10.0 mi South 6.9 mph - 0.04 in   Overcast
6:35 PM 51.8 °F - 48.2 °F 88% 29.80 in 10.0 mi SSE 12.7 mph 21.9 mph 0.06 in   Overcast
6:55 PM 51.8 °F - 48.2 °F 88% 29.79 in 10.0 mi SSE 15.0 mph 19.6 mph 0.08 in   Overcast
7:15 PM 53.6 °F - 46.4 °F 77% 29.78 in 10.0 mi SSE 12.7 mph 20.7 mph N/A   Overcast
7:35 PM 53.6 °F - 46.4 °F 77% 29.76 in 10.0 mi SSE 12.7 mph 21.9 mph 0.01 in   Overcast
7:55 PM 53.6 °F - 46.4 °F 77% 29.76 in 9.0 mi SSE 15.0 mph 26.5 mph 0.03 in   Overcast
8:15 PM 51.8 °F - 48.2 °F 88% 29.75 in 6.0 mi SSE 10.4 mph 21.9 mph N/A   Overcast
8:35 PM 51.8 °F - 48.2 °F 88% 29.75 in 10.0 mi SSE 17.3 mph 21.9 mph 0.01 in   Overcast
8:55 PM 53.6 °F - 48.2 °F 82% 29.75 in 10.0 mi SSE 17.3 mph 24.2 mph 0.03 in   Overcast
9:15 PM 51.8 °F - 48.2 °F 88% 29.75 in 6.0 mi SSE 15.0 mph 19.6 mph 0.01 in   Overcast
9:35 PM 53.6 °F - 48.2 °F 82% 29.75 in 10.0 mi SSE 15.0 mph 24.2 mph 0.02 in   Overcast
9:55 PM 53.6 °F - 48.2 °F 82% 29.75 in 10.0 mi SSE 10.4 mph 17.3 mph 0.03 in   Overcast
10:15 PM 53.6 °F - 48.2 °F 82% 29.75 in 10.0 mi SSE 12.7 mph 18.4 mph 0.03 in   Overcast
10:35 PM 53.6 °F - 48.2 °F 82% 29.74 in 10.0 mi SSE 12.7 mph 19.6 mph 0.05 in   Overcast
10:55 PM 53.6 °F - 48.2 °F 82% 29.73 in 7.0 mi SSE 13.8 mph 20.7 mph 0.06 in   Overcast
11:15 PM 53.6 °F - 48.2 °F 82% 29.73 in 8.0 mi SSE 15.0 mph 20.7 mph 0.01 in   Overcast
11:35 PM 53.6 °F - 48.2 °F 82% 29.73 in 8.0 mi South 10.4 mph 24.2 mph 0.03 in   Overcast
11:55 PM 53.6 °F - 48.2 °F 82% 29.72 in 10.0 mi SSE 15.0 mph 26.5 mph 0.03 in   Overcast